Time,TemperatureF,DewpointF,PressureIn,WindDirection,WindDirectionDegrees,WindSpeedMPH,WindSpeedGustMPH,Humidity,HourlyPrecipIn,Conditions,Clouds,dailyrainin,SoftwareType,DateUTC
2013-05-06 00:11:00,53.9,50.0,29.84,South,190,2.0,3.0,87,0.00,,,0.00,weatherlink.com 1.10,2013-05-06 07:11:00,
2013-05-06 00:26:00,53.9,50.0,29.85,South,190,0.0,1.0,87,0.00,,,0.00,weatherlink.com 1.10,2013-05-06 07:26:00,
2013-05-06 00:41:00,53.9,50.0,29.85,South,190,0.0,2.0,87,0.00,,,0.00,weatherlink.com 1.10,2013-05-06 07:41:00,
2013-05-06 00:56:00,53.9,50.0,29.85,South,180,4.0,6.0,87,0.00,,,0.00,weatherlink.com 1.10,2013-05-06 07:56:00,
2013-05-06 01:11:00,53.9,50.0,29.85,SW,219,3.0,6.0,87,0.00,,,0.00,weatherlink.com 1.10,2013-05-06 08:11:00,
2013-05-06 01:26:00,53.8,50.0,29.85,South,184,3.0,4.0,87,0.00,,,0.00,weatherlink.com 1.10,2013-05-06 08:26:00,
2013-05-06 01:41:00,53.7,50.0,29.85,SW,230,0.0,4.0,87,0.00,,,0.00,weatherlink.com 1.10,2013-05-06 08:41:00,
2013-05-06 01:56:00,53.7,50.0,29.85,South,184,3.0,4.0,87,0.00,,,0.00,weatherlink.com 1.10,2013-05-06 08:56:00,
2013-05-06 02:11:00,53.8,50.0,29.85,SW,221,0.0,3.0,86,0.00,,,0.00,weatherlink.com 1.10,2013-05-06 09:11:00,
2013-05-06 02:26:00,53.7,50.0,29.85,SSE,165,2.0,3.0,86,0.00,,,0.00,weatherlink.com 1.10,2013-05-06 09:26:00,
2013-05-06 02:41:00,53.7,50.0,29.84,SSW,204,1.0,4.0,86,0.00,,,0.00,weatherlink.com 1.10,2013-05-06 09:41:00,
2013-05-06 02:56:00,53.8,50.0,29.84,SSE,165,2.0,6.0,86,0.00,,,0.00,weatherlink.com 1.10,2013-05-06 09:56:00,
2013-05-06 03:11:00,53.7,50.0,29.84,SSW,204,2.0,3.0,87,0.00,,,0.00,weatherlink.com 1.10,2013-05-06 10:11:00,
2013-05-06 03:26:00,53.6,50.0,29.84,WSW,253,0.0,3.0,87,0.00,,,0.00,weatherlink.com 1.10,2013-05-06 10:26:00,
2013-05-06 03:41:00,53.2,50.0,29.84,SSW,213,0.0,2.0,87,0.00,,,0.00,weatherlink.com 1.10,2013-05-06 10:41:00,
2013-05-06 03:56:00,52.7,49.0,29.83,SSW,213,0.0,0.0,88,0.00,,,0.00,weatherlink.com 1.10,2013-05-06 10:56:00,
2013-05-06 04:11:00,52.3,49.0,29.84,SSW,199,1.0,3.0,89,0.00,,,0.00,weatherlink.com 1.10,2013-05-06 11:11:00,
2013-05-06 04:26:00,52.4,49.0,29.83,South,189,0.0,3.0,89,0.00,,,0.00,weatherlink.com 1.10,2013-05-06 11:26:00,
2013-05-06 04:41:00,52.4,49.0,29.83,South,189,0.0,6.0,89,0.00,,,0.00,weatherlink.com 1.10,2013-05-06 11:41:00,
2013-05-06 04:56:00,52.1,49.0,29.82,South,171,2.0,3.0,89,0.00,,,0.00,weatherlink.com 1.10,2013-05-06 11:56:00,
2013-05-06 05:11:00,51.8,49.0,29.83,South,177,0.0,1.0,89,0.00,,,0.00,weatherlink.com 1.10,2013-05-06 12:11:00,
2013-05-06 05:26:00,51.4,49.0,29.82,SSE,167,0.0,1.0,90,0.00,,,0.00,weatherlink.com 1.10,2013-05-06 12:26:00,
2013-05-06 05:41:00,50.5,48.0,29.82,SSE,167,0.0,0.0,91,0.00,,,0.00,weatherlink.com 1.10,2013-05-06 12:41:00,
2013-05-06 05:56:00,49.6,48.0,29.82,SSE,167,0.0,0.0,93,0.00,,,0.00,weatherlink.com 1.10,2013-05-06 12:56:00,
2013-05-06 06:11:00,49.4,48.0,29.83,SSE,167,0.0,0.0,94,0.00,,,0.00,weatherlink.com 1.10,2013-05-06 13:11:00,
2013-05-06 06:26:00,49.7,48.0,29.83,SSE,167,0.0,0.0,94,0.00,,,0.00,weatherlink.com 1.10,2013-05-06 13:26:00,
2013-05-06 06:41:00,49.6,48.0,29.84,SSE,167,0.0,1.0,94,0.00,,,0.00,weatherlink.com 1.10,2013-05-06 13:41:00,
2013-05-06 06:56:00,49.5,48.0,29.84,SSE,167,0.0,0.0,94,0.00,,,0.00,weatherlink.com 1.10,2013-05-06 13:56:00,
2013-05-06 07:11:00,49.7,48.0,29.85,SSE,167,0.0,0.0,95,0.00,,,0.00,weatherlink.com 1.10,2013-05-06 14:11:00,
2013-05-06 07:26:00,50.2,49.0,29.85,SSE,167,0.0,1.0,94,0.00,,,0.00,weatherlink.com 1.10,2013-05-06 14:26:00,
2013-05-06 07:41:00,50.5,49.0,29.86,SSE,167,0.0,0.0,94,0.00,,,0.00,weatherlink.com 1.10,2013-05-06 14:41:00,
2013-05-06 07:56:00,51.2,50.0,29.86,SSE,167,0.0,0.0,94,0.00,,,0.00,weatherlink.com 1.10,2013-05-06 14:56:00,
2013-05-06 08:11:00,52.0,50.0,29.86,SSE,167,0.0,0.0,93,0.00,,,0.00,weatherlink.com 1.10,2013-05-06 15:11:00,
2013-05-06 08:26:00,52.5,50.0,29.86,SSE,167,0.0,0.0,92,0.00,,,0.00,weatherlink.com 1.10,2013-05-06 15:26:00,
2013-05-06 08:41:00,53.3,51.0,29.87,SSE,163,0.0,1.0,91,0.00,,,0.00,weatherlink.com 1.10,2013-05-06 15:41:00,
2013-05-06 08:56:00,55.0,52.0,29.87,SSE,158,0.0,1.0,90,0.00,,,0.00,weatherlink.com 1.10,2013-05-06 15:56:00,
2013-05-06 09:12:00,56.9,53.0,29.87,SSE,158,0.0,1.0,86,0.00,,,0.00,weatherlink.com 1.10,2013-05-06 16:12:00,
2013-05-06 09:27:00,58.3,53.0,29.88,SSE,149,0.0,1.0,81,0.00,,,0.00,weatherlink.com 1.10,2013-05-06 16:27:00,
2013-05-06 09:42:00,58.8,52.0,29.88,SSW,199,0.0,3.0,78,0.00,,,0.00,weatherlink.com 1.10,2013-05-06 16:42:00,
2013-05-06 09:57:00,59.2,53.0,29.88,SW,228,2.0,4.0,79,0.00,,,0.00,weatherlink.com 1.10,2013-05-06 16:57:00,
2013-05-06 10:12:00,60.3,52.0,29.89,SW,233,1.0,5.0,75,0.00,,,0.00,weatherlink.com 1.10,2013-05-06 17:12:00,
2013-05-06 10:27:00,60.9,51.0,29.89,ESE,117,1.0,5.0,70,0.00,,,0.00,weatherlink.com 1.10,2013-05-06 17:27:00,
2013-05-06 10:42:00,60.1,51.0,29.89,South,190,2.0,7.0,71,0.00,,,0.00,weatherlink.com 1.10,2013-05-06 17:42:00,
2013-05-06 10:57:00,60.2,51.0,29.89,SW,226,1.0,7.0,72,0.00,,,0.00,weatherlink.com 1.10,2013-05-06 17:57:00,
2013-05-06 11:12:00,60.9,51.0,29.90,SW,217,5.0,6.0,70,0.00,,,0.00,weatherlink.com 1.10,2013-05-06 18:12:00,
2013-05-06 11:27:00,61.4,51.0,29.90,WSW,245,1.0,8.0,69,0.00,,,0.00,weatherlink.com 1.10,2013-05-06 18:27:00,
2013-05-06 11:42:00,62.4,51.0,29.90,SW,224,2.0,6.0,67,0.00,,,0.00,weatherlink.com 1.10,2013-05-06 18:42:00,
2013-05-06 11:57:00,62.8,52.0,29.90,South,182,3.0,5.0,67,0.00,,,0.00,weatherlink.com 1.10,2013-05-06 18:57:00,
2013-05-06 12:12:00,62.9,51.0,29.90,SSW,199,2.0,6.0,66,0.00,,,0.00,weatherlink.com 1.10,2013-05-06 19:12:00,
2013-05-06 12:27:00,63.5,51.0,29.89,SSW,199,0.0,4.0,65,0.00,,,0.00,weatherlink.com 1.10,2013-05-06 19:27:00,
2013-05-06 12:42:00,65.2,51.0,29.89,South,175,2.0,7.0,61,0.00,,,0.00,weatherlink.com 1.10,2013-05-06 19:42:00,
2013-05-06 12:57:00,65.3,51.0,29.89,SSW,192,4.0,7.0,60,0.00,,,0.00,weatherlink.com 1.10,2013-05-06 19:57:00,
2013-05-06 13:12:00,64.1,50.0,29.89,SW,231,3.0,5.0,61,0.00,,,0.00,weatherlink.com 1.10,2013-05-06 20:12:00,
2013-05-06 13:27:00,62.6,52.0,29.89,SSW,199,4.0,7.0,68,0.00,,,0.00,weatherlink.com 1.10,2013-05-06 20:27:00,
2013-05-06 13:42:00,62.0,52.0,29.90,SSE,165,4.0,7.0,70,0.00,,,0.00,weatherlink.com 1.10,2013-05-06 20:42:00,
2013-05-06 13:57:00,61.1,52.0,29.90,SW,221,2.0,10.0,72,0.00,,,0.00,weatherlink.com 1.10,2013-05-06 20:57:00,
2013-05-06 14:12:00,62.2,51.0,29.90,SW,223,1.0,8.0,66,0.00,,,0.00,weatherlink.com 1.10,2013-05-06 21:12:00,
2013-05-06 14:27:00,63.2,50.0,29.90,SSE,163,4.0,10.0,62,0.00,,,0.00,weatherlink.com 1.10,2013-05-06 21:27:00,
2013-05-06 14:42:00,63.6,50.0,29.90,SSW,209,4.0,7.0,61,0.00,,,0.00,weatherlink.com 1.10,2013-05-06 21:42:00,
2013-05-06 14:57:00,64.1,49.0,29.89,WSW,250,3.0,9.0,59,0.00,,,0.00,weatherlink.com 1.10,2013-05-06 21:57:00,
2013-05-06 15:12:00,64.4,48.0,29.89,SSW,192,4.0,10.0,56,0.00,,,0.00,weatherlink.com 1.10,2013-05-06 22:12:00,
2013-05-06 15:27:00,64.9,49.0,29.89,South,180,5.0,9.0,56,0.00,,,0.00,weatherlink.com 1.10,2013-05-06 22:27:00,
2013-05-06 15:42:00,64.7,49.0,29.89,South,185,11.0,11.0,57,0.00,,,0.00,weatherlink.com 1.10,2013-05-06 22:42:00,
2013-05-06 15:57:00,64.1,48.0,29.89,SW,225,3.0,10.0,57,0.00,,,0.00,weatherlink.com 1.10,2013-05-06 22:57:00,
2013-05-06 16:12:00,63.9,49.0,29.89,SW,215,2.0,9.0,58,0.00,,,0.00,weatherlink.com 1.10,2013-05-06 23:12:00,
2013-05-06 16:27:00,63.3,48.0,29.89,SSW,194,4.0,8.0,58,0.00,,,0.00,weatherlink.com 1.10,2013-05-06 23:27:00,
2013-05-06 16:42:00,63.8,49.0,29.89,SSW,193,2.0,9.0,58,0.00,,,0.00,weatherlink.com 1.10,2013-05-06 23:42:00,
2013-05-06 16:57:00,62.4,48.0,29.89,South,184,6.0,9.0,60,0.00,,,0.00,weatherlink.com 1.10,2013-05-06 23:57:00,
2013-05-06 17:12:00,62.6,48.0,29.89,WSW,254,4.0,8.0,60,0.00,,,0.00,weatherlink.com 1.10,2013-05-07 00:12:00,
2013-05-06 17:27:00,60.9,49.0,29.89,South,175,4.0,9.0,64,0.00,,,0.00,weatherlink.com 1.10,2013-05-07 00:27:00,
2013-05-06 17:42:00,61.3,49.0,29.90,South,187,1.0,9.0,64,0.00,,,0.00,weatherlink.com 1.10,2013-05-07 00:42:00,
2013-05-06 17:57:00,60.3,48.0,29.90,SW,236,3.0,9.0,64,0.00,,,0.00,weatherlink.com 1.10,2013-05-07 00:57:00,
2013-05-06 18:12:00,59.8,48.0,29.90,South,190,3.0,5.0,65,0.00,,,0.00,weatherlink.com 1.10,2013-05-07 01:12:00,
2013-05-06 18:27:00,59.1,48.0,29.90,SSW,209,2.0,6.0,66,0.00,,,0.00,weatherlink.com 1.10,2013-05-07 01:27:00,
2013-05-06 18:42:00,59.1,48.0,29.89,South,180,3.0,5.0,66,0.00,,,0.00,weatherlink.com 1.10,2013-05-07 01:42:00,
2013-05-06 18:58:00,59.2,47.0,29.90,SSW,194,3.0,3.0,65,0.00,,,0.00,weatherlink.com 1.10,2013-05-07 01:58:00,
2013-05-06 19:12:00,59.3,48.0,29.90,SSW,199,0.0,2.0,66,0.00,,,0.00,weatherlink.com 1.10,2013-05-07 02:12:00,
2013-05-06 19:27:00,58.7,48.0,29.90,South,182,1.0,4.0,67,0.00,,,0.00,weatherlink.com 1.10,2013-05-07 02:27:00,
2013-05-06 19:42:00,58.1,48.0,29.91,SSW,199,2.0,5.0,68,0.00,,,0.00,weatherlink.com 1.10,2013-05-07 02:42:00,
2013-05-06 19:57:00,57.5,48.0,29.91,WSW,257,0.0,3.0,70,0.00,,,0.00,weatherlink.com 1.10,2013-05-07 02:57:00,
2013-05-06 20:12:00,56.7,48.0,29.92,WSW,257,0.0,1.0,73,0.00,,,0.00,weatherlink.com 1.10,2013-05-07 03:12:00,
2013-05-06 20:27:00,56.0,49.0,29.93,WSW,257,0.0,1.0,76,0.00,,,0.00,weatherlink.com 1.10,2013-05-07 03:27:00,
2013-05-06 20:42:00,56.0,49.0,29.93,WSW,257,0.0,1.0,78,0.00,,,0.00,weatherlink.com 1.10,2013-05-07 03:42:00,
2013-05-06 20:58:00,55.9,50.0,29.94,WSW,257,0.0,1.0,79,0.00,,,0.00,weatherlink.com 1.10,2013-05-07 03:58:00,
2013-05-06 21:13:00,55.8,49.0,29.95,WSW,257,0.0,1.0,79,0.00,,,0.00,weatherlink.com 1.10,2013-05-07 04:13:00,
2013-05-06 21:28:00,55.7,50.0,29.95,WSW,257,0.0,1.0,80,0.00,,,0.00,weatherlink.com 1.10,2013-05-07 04:28:00,
2013-05-06 21:43:00,55.3,49.0,29.95,WSW,257,0.0,2.0,80,0.00,,,0.00,weatherlink.com 1.10,2013-05-07 04:43:00,
2013-05-06 21:58:00,54.9,49.0,29.96,WSW,257,0.0,1.0,81,0.00,,,0.00,weatherlink.com 1.10,2013-05-07 04:58:00,
2013-05-06 22:13:00,54.3,49.0,29.96,WSW,257,0.0,1.0,83,0.00,,,0.00,weatherlink.com 1.10,2013-05-07 05:13:00,
2013-05-06 22:28:00,53.6,49.0,29.96,WSW,257,0.0,1.0,84,0.00,,,0.00,weatherlink.com 1.10,2013-05-07 05:28:00,
2013-05-06 22:43:00,53.5,49.0,29.97,WSW,257,0.0,0.0,85,0.00,,,0.00,weatherlink.com 1.10,2013-05-07 05:43:00,
2013-05-06 22:58:00,53.1,49.0,29.97,WSW,257,0.0,0.0,85,0.00,,,0.00,weatherlink.com 1.10,2013-05-07 05:58:00,
2013-05-06 23:13:00,52.5,49.0,29.97,WSW,257,0.0,0.0,87,0.00,,,0.00,weatherlink.com 1.10,2013-05-07 06:13:00,
2013-05-06 23:28:00,52.3,49.0,29.97,WSW,257,0.0,0.0,88,0.00,,,0.00,weatherlink.com 1.10,2013-05-07 06:28:00,
2013-05-06 23:43:00,52.4,49.0,29.97,WSW,257,0.0,0.0,88,0.00,,,0.00,weatherlink.com 1.10,2013-05-07 06:43:00,
2013-05-06 23:58:00,52.5,49.0,29.97,WSW,257,0.0,0.0,89,0.00,,,0.00,weatherlink.com 1.10,2013-05-07 06:58:00,